This demonstration page uses our WeatherBlox Daily Observations layout. Learn more.

Left ArrowRight Arrow

Hourly Observations for July 31, 2019

Temp ( °F °C ) Dew Point ( °F °C ) Humidity (%) Winds ( mph kmh ) Pressure ( in mb ) Visibility ( mi km ) Precip ( " mm )
12:53 am 00:53 Clear 66 18.9 65 18.3 96 96 N N/A 30.03 1017 10 16 N/A
1:53 am 01:53 Clear 67 19.4 66 18.9 97 97 N N/A 30.03 1017 10 16 N/A
2:53 am 02:53 Cloudy 67 19.4 67 19.4 100 100 N N/A 30.03 1017 10 16 N/A
3:53 am 03:53 Mostly Cloudy 67 19.4 67 19.4 100 100 N N/A 30.03 1017 10 16 N/A
4:53 am 04:53 Mostly Clear 66 18.9 65 18.3 96 96 W 3 6 30.04 1017 10 16 N/A
5:53 am 05:53 Mostly Cloudy 67 19.4 66 18.9 97 97 N N/A 30.05 1018 10 16 N/A
6:53 am 06:53 Mostly Cloudy 68 20 63 17.2 84 84 VRB 3 6 30.07 1018 10 16 N/A
7:53 am 07:53 Partly Cloudy 68 20 63 17.2 84 84 N N/A 30.09 1019 10 16 N/A
8:53 am 08:53 Mostly Sunny 71 21.7 60 15.6 68 68 N 3 6 30.11 1020 10 16 N/A
9:53 am 09:53 Sunny 73 22.8 59 15 62 62 NNE 7 11 30.10 1019 10 16 N/A
10:53 am 10:53 Sunny 77 25 61 16.1 58 58 N 3 6 30.11 1020 10 16 N/A
11:53 am 11:53 Partly Cloudy 80 26.7 63 17.2 56 56 VRB 3 6 30.11 1020 10 16 N/A
12:53 pm 12:53 Sunny 81 27.2 64 17.8 57 57 NW 5 7 30.10 1019 10 16 N/A
1:53 pm 13:53 Sunny 84 28.9 66 18.9 55 55 N 6 9 30.09 1019 10 16 N/A
2:53 pm 14:53 Partly Cloudy 84 28.9 65 18.3 53 53 NNE 6 9 30.08 1019 10 16 N/A
3:53 pm 15:53 Mostly Cloudy 85 29.4 66 18.9 53 53 N 6 9 30.07 1018 10 16 N/A
4:53 pm 16:53 Mostly Cloudy 85 29.4 66 18.9 53 53 NNW 7 11 30.06 1018 10 16 N/A
5:53 pm 17:53 Sunny 84 28.9 65 18.3 53 53 NNW 9 15 30.05 1018 10 16 N/A
6:53 pm 18:53 Mostly Sunny 82 27.8 65 18.3 56 56 NNW 8 13 30.05 1018 10 16 N/A
7:53 pm 19:53 Sunny 80 26.7 64 17.8 58 58 NNW 9 15 30.06 1018 10 16 N/A
8:53 pm 20:53 Clear 76 24.4 64 17.8 67 67 NNW 5 7 30.06 1018 10 16 N/A
9:53 pm 21:53 Clear 72 22.2 65 18.3 79 79 NNW 5 7 30.08 1019 10 16 N/A
10:53 pm 22:53 Cloudy 73 22.8 64 17.8 74 74 NNW 3 6 30.09 1019 10 16 N/A
11:53 pm 23:53 Clear 71 21.7 61 16.1 71 71 NNW 5 7 30.09 1019 10 16 N/A

Powered by AerisWeather